エーザス彗星

C/2004 R2 ( ASAS )

English version
Home page
Updated on December 5, 2004

---------------------------------------------------------------------

・ プロフィール

発見日 2004年9月3日
発見光度 11.9等
発見者 G. Pojmanski (All Sky Automated Survey)

・ 写真集

・ 軌道要素

T 2004 Oct. 7.897 TT                                    MPC
q   0.11283              (2000.0)            P               Q
                   Peri.    5.354       -0.992905       +0.112547
                   Node   182.464       -0.110999       -0.761595
e   1.0            Incl.   63.174       +0.042638       +0.638206
>From 59 observations 2004 Sept. 9-27.

・ 星図

・ 光度変化

        m1 = 10.5 + 5 logΔ + 13.2 log r  [   ,-21]  (              〜2004年 9月16日)
        m1 =  9.5 + 5 logΔ +  5   log r  [-21,  0]  (2004年 9月16日〜2004年10月 7日)
        m1 = 20.2 + 5 logΔ + 13.5 log r  [  0,   ]  (2004年10月 7日〜              )

        ※ 灰色の曲線は、m1 = 14.3 + 5 logΔ + 10.0 log r の光度曲線です。

---------------------------------------------------------------------

軌道要素はM.P.E.C. 2004-T08に掲載されたものです。
星図は StellaNavigator Ver.2.0 for Windows (アストロアーツ 編著 / アスキー出版局刊) で作成したものです。
光度グラフはComet for Windowsで作成したものです。

---------------------------------------------------------------------

Copyright(C) Seiichi Yoshida (comet@aerith.net). All rights reserved.